Voltar ao catálogo

SL-8 DEB

LostLEO
NORAD 39697·DEBRIS·🇷🇺 Russia

Lançado Feb 12, 1991 de Plesetsk Cosmodrome

Loading…

Próximas Passagens (próximas 24 horas)

TLE

ObsoletoSource: Space-Track

Época: Mar 18, 2024, 04:08 UTC

1 39697U 91009DL  24078.17227387  .00000062  00000-0  71113-3 0  9995
2 39697  74.0593 152.9173 0144454 345.4763  14.2140 12.20822525847994

Acompanhe SL-8 DEB em tempo real com AllMySat

Download on the App Store